Location: Bakov nad Jizerou
(50.4784°N, 14.9394°E)
Time: 15:31:19
(UTC+00:00)

Meteor 1-24 Rocket - Pass Details

Date: 16 June 2021
Orbit: 791 x 927 km, 81.3° (Epoch: 03 August)

Event Time Altitude Azimuth Distance (km) Brightness Sun altitude
Exits shadow 21:31:02 17° 182° (S) 1,923 5.0 -13.5°
Maximum altitude 21:35:11 75° 99° (E) 841 3.6 -13.7°
Drops below altitude 10° 21:40:40 10° 15° (NNE) 2,439 7.0 -14.0°
Sets 21:43:07 0° 14° (NNE) 3,397 7.9 -14.2°
